Location: Elende
(51.4317°N, 10.6316°E)
Time: 11:17:18
(UTC+00:00)

Meteor 2-19 Rocket - Pass Details

Date: 18 September 2020
Orbit: 935 x 959 km, 82.5° (Epoch: 25 October)

Event Time Altitude Azimuth Distance (km) Brightness Sun altitude
Rises 19:56:05 0° 351° (N) 3,643 8.2 -23.0°
Reaches altitude 10° 19:58:39 10° 355° (N) 2,690 7.3 -23.3°
Maximum altitude 20:04:44 60° 75° (ENE) 1,083 4.5 -24.1°
Enters shadow 20:05:39 54° 111° (ESE) 1,144 4.5 -24.2°
